GW6270 Weather Reports


time (UTC)temp
C
wind
direction
speed
KPH
gust
KPH
rain 1hr
cm
rain 24hr
cm
rain mn
cm
humidity
%
barometer
mb
20260504192543 15 316 6.4 14.5 0.00 0.00 0.00 30 1015.6
20260504192040 15 313 4.8 17.7 0.00 0.00 0.00 30 1015.6
20260504191538 15 20 3.2 9.7 0.00 0.00 0.00 31 1015.6
20260504191034 15 288 11.3 20.9 0.00 0.00 0.00 30 1015.6
20260504190530 15 252 6.4 12.9 0.00 0.00 0.00 31 1015.8
20260504190026 14 230 6.4 11.3 0.00 0.00 0.00 33 1015.7
20260504185524 14 294 9.7 16.1 0.00 0.00 0.00 32 1015.8
20260504185020 13 235 11.3 14.5 0.00 0.00 0.00 37 1015.7
20260504184515 14 271 8.0 24.1 0.00 0.00 0.00 37 1016.1
20260504184011 13 224 3.2 9.7 0.00 0.00 0.00 38 1015.8
20260504183509 13 246 8.0 16.1 0.00 0.00 0.00 39 1015.9
20260504183007 13 249 6.4 12.9 0.00 0.00 0.00 39 1015.9
20260504182503 13 254 6.4 12.9 0.00 0.00 0.00 37 1016.1
20260504182000 13 242 6.4 11.3 0.00 0.00 0.00 37 1015.9
20260504181457 13 273 4.8 11.3 0.00 0.00 0.00 37 1015.9
20260504180956 13 255 4.8 9.7 0.00 0.00 0.00 38 1016.1
20260504180454 12 209 9.7 14.5 0.00 0.00 0.00 38 1016.2
20260504175952 13 271 6.4 12.9 0.00 0.00 0.00 37 1016.5
20260504175449 13 283 8.0 14.5 0.00 0.00 0.00 38 1016.5
20260504174947 13 264 6.4 11.3 0.00 0.00 0.00 37 1016.6
20260504174444 12 281 4.8 9.7 0.00 0.00 0.00 38 1016.5
20260504173941 13 279 6.4 17.7 0.00 0.00 0.00 37 1016.5
20260504173437 13 323 3.2 9.7 0.00 0.00 0.00 37 1016.5
20260504172935 13 247 11.3 16.1 0.00 0.00 0.00 36 1016.4
20260504172431 13 224 6.4 9.7 0.00 0.00 0.00 36 1016.5
20260504171928 13 262 4.8 12.9 0.00 0.00 0.00 35 1016.5
20260504171425 13 274 6.4 14.5 0.00 0.00 0.00 37 1016.6
20260504170922 13 269 11.3 14.5 0.00 0.00 0.00 38 1016.5
20260504170418 12 279 6.4 6.4 0.00 0.00 0.00 42 1016.5
20260504160337 12 271 6.4 14.5 0.00 0.00 0.00 45 1016.8
20260504150802 11 239 6.4 14.5 0.00 0.00 0.00 52 1016.9
20260504150258 11 259 4.8 14.5 0.00 0.00 0.00 51 1016.9
20260504141228 10 235 6.4 9.7 0.00 0.00 0.00 55 1017.0
20260504140725 10 255 3.2 9.7 0.00 0.00 0.00 55 1017.0
20260504140220 10 233 3.2 6.4 0.00 0.00 0.00 56 1016.9
20260504130649 9 232 1.6 4.8 0.00 0.00 0.00 56 1017.0
20260504130145 9 242 3.2 3.2 0.00 0.00 0.00 56 1016.8
20260504120110 8 239 3.2 3.2 0.00 0.00 0.00 56 1016.6
20260504110537 10 217 0.0 4.8 0.00 0.00 0.00 53 1017.2
20260504100459 10 313 3.2 4.8 0.00 0.00 0.00 52 1017.1
20260504081857 12 25 12.9 14.5 0.00 0.00 0.00 45 1016.0
20260504081354 12 13 9.7 16.1 0.00 0.00 0.00 44 1016.0
20260504080850 12 34 11.3 24.1 0.00 0.00 0.00 43 1015.7
20260504080347 12 7 9.7 11.3 0.00 0.00 0.00 42 1015.6
20260504070315 13 359 9.7 14.5 0.00 0.00 0.00 35 1013.7
20260504060235 13 46 12.9 22.5 0.00 0.00 0.00 34 1011.7
20260504050703 16 12 1.6 3.2 0.00 0.00 0.00 33 1009.8
20260504050200 16 23 3.2 6.4 0.00 0.00 0.00 32 1009.4
20260504045657 17 34 3.2 11.3 0.00 0.00 0.00 32 1009.4
20260504045157 17 6 4.8 12.9 0.00 0.00 0.00 32 1009.4
20260504044655 17 39 9.7 12.9 0.00 0.00 0.00 31 1009.4
20260504044152 17 54 0.0 6.4 0.00 0.00 0.00 31 1008.9
20260504043649 17 36 1.6 3.2 0.00 0.00 0.00 31 1009.2
20260504043146 16 59 1.6 9.7 0.00 0.00 0.00 31 1008.9
20260504042644 16 53 0.0 3.2 0.00 0.00 0.00 32 1009.2
20260504042140 15 70 0.0 3.2 0.00 0.00 0.00 33 1008.9
20260504041636 15 187 0.0 1.6 0.00 0.00 0.00 33 1009.0
20260504041132 15 187 0.0 1.6 0.00 0.00 0.00 33 1008.7
20260504040630 15 190 1.6 1.6 0.00 0.00 0.00 34 1008.5
20260504040126 15 356 0.0 0.0 0.00 0.00 0.00 33 1008.5
20260504035623 15 355 0.0 3.2 0.00 0.00 0.00 34 1008.2
20260504035120 15 342 1.6 3.2 0.00 0.00 0.00 36 1008.0
20260504034618 16 191 0.0 0.0 0.00 0.00 0.00 37 1007.7
20260504034114 16 191 0.0 1.6 0.00 0.00 0.00 36 1007.7
20260504033612 16 191 0.0 3.2 0.00 0.00 0.00 35 1007.6
20260504033109 16 190 0.0 1.6 0.00 0.00 0.00 33 1007.7
20260504032606 17 183 1.6 1.6 0.00 0.00 0.00 33 1007.5
20260504032103 17 183 0.0 1.6 0.00 0.00 0.00 31 1007.5
20260504031600 17 183 0.0 1.6 0.00 0.00 0.00 30 1007.5
20260504031056 17 183 0.0 1.6 0.00 0.00 0.00 31 1007.7
20260504030553 17 183 0.0 0.0 0.00 0.00 0.00 31 1007.4
20260504030049 17 183 0.0 1.6 0.00 0.00 0.00 30 1007.3
20260504025547 18 183 0.0 1.6 0.00 0.00 0.00 29 1007.5
20260504025043 18 182 0.0 0.0 0.00 0.00 0.00 29 1007.2
20260504024541 18 173 0.0 0.0 0.00 0.00 0.00 28 1007.4
20260504024037 19 74 0.0 1.6 0.00 0.00 0.00 27 1007.3
20260504023534 20 22 0.0 0.0 0.00 0.00 0.00 25 1007.2
20260504023030 20 21 0.0 0.0 0.00 0.00 0.00 24 1007.2
20260504022526 21 321 1.6 3.2 0.00 0.00 0.00 23 1007.2
20260504022022 21 353 1.6 3.2 0.00 0.00 0.00 22 1007.0
20260504021520 21 305 0.0 0.0 0.00 0.00 0.00 22 1007.2
20260504021017 21 348 0.0 0.0 0.00 0.00 0.00 21 1007.0
20260504020514 22 336 0.0 0.0 0.00 0.00 0.00 21 1007.0
20260504020010 22 334 1.6 1.6 0.00 0.00 0.00 20 1006.8
20260504015507 23 5 1.6 3.2 0.00 0.00 0.00 20 1006.8
20260504015003 23 38 1.6 3.2 0.00 0.00 0.00 20 1006.7
20260504014459 23 10 3.2 3.2 0.00 0.00 0.00 19 1007.1
20260504013956 23 333 1.6 3.2 0.00 0.00 0.00 18 1007.0
20260504013454 24 336 3.2 3.2 0.00 0.00 0.00 18 1007.1
20260504012950 24 221 0.0 3.2 0.00 0.00 0.00 18 1007.1
20260504012448 24 9 1.6 4.8 0.00 0.00 0.00 18 1007.0
20260504011946 25 316 3.2 4.8 0.00 0.00 0.00 18 1007.0
20260504011442 25 340 3.2 3.2 0.00 0.00 0.00 18 1007.1
20260504010938 25 214 0.0 3.2 0.00 0.00 0.00 18 1007.4
20260504010434 25 326 3.2 6.4 0.00 0.00 0.00 16 1007.4
20260504005930 25 217 3.2 3.2 0.00 0.00 0.00 16 1007.3
20260504005427 25 351 6.4 11.3 0.00 0.00 0.00 16 1007.2
20260504004924 25 260 3.2 9.7 0.00 0.00 0.00 16 1007.4
20260504004422 25 330 6.4 9.7 0.00 0.00 0.00 16 1007.5
20260504003919 25 3 4.8 9.7 0.00 0.00 0.00 16 1007.5
20260504003415 25 217 4.8 11.3 0.00 0.00 0.00 16 1007.4
20260504002912 26 292 6.4 12.9 0.00 0.00 0.00 15 1007.5
20260504002409 26 230 4.8 9.7 0.00 0.00 0.00 15 1007.6
20260504001907 26 283 3.2 9.7 0.00 0.00 0.00 16 1007.7
20260504001404 26 285 9.7 11.3 0.00 0.00 0.00 15 1007.8
20260504000900 26 268 3.2 6.4 0.00 0.00 0.00 16 1007.8
20260504000358 26 238 3.2 9.7 0.00 0.00 0.00 16 1007.8
20260503235855 26 209 1.6 6.4 0.00 0.00 0.00 15 1007.7
20260503235353 26 232 6.4 9.7 0.00 0.00 0.00 15 1007.8
20260503234850 26 270 6.4 11.3 0.00 0.00 0.00 16 1008.0
20260503234347 26 280 6.4 14.5 0.00 0.00 0.00 15 1007.8
20260503233845 26 249 6.4 14.5 0.00 0.00 0.00 16 1008.0
20260503233341 26 289 6.4 11.3 0.00 0.00 0.00 15 1007.8
20260503232837 26 267 3.2 11.3 0.00 0.00 0.00 15 1008.1
20260503232335 25 260 6.4 16.1 0.00 0.00 0.00 15 1008.0
20260503231833 25 239 8.0 11.3 0.00 0.00 0.00 15 1008.2
20260503231330 25 252 8.0 12.9 0.00 0.00 0.00 16 1008.1
20260503230825 25 280 14.5 17.7 0.00 0.00 0.00 15 1008.1
20260503230323 25 240 6.4 22.5 0.00 0.00 0.00 16 1008.1
20260503225820 26 290 6.4 14.5 0.00 0.00 0.00 16 1008.2
20260503225316 26 238 3.2 14.5 0.00 0.00 0.00 16 1008.1
20260503224812 26 257 8.0 12.9 0.00 0.00 0.00 15 1008.4
20260503224310 26 274 11.3 12.9 0.00 0.00 0.00 14 1008.4
20260503223808 26 225 9.7 14.5 0.00 0.00 0.00 15 1008.4
20260503223305 26 302 8.0 14.5 0.00 0.00 0.00 15 1008.4
20260503222800 26 37 6.4 16.1 0.00 0.00 0.00 16 1008.4
20260503222259 25 248 3.2 16.1 0.00 0.00 0.00 16 1008.5
20260503221757 25 292 9.7 16.1 0.00 0.00 0.00 16 1008.7
20260503221255 26 251 12.9 24.1 0.00 0.00 0.00 16 1008.7
20260503220751 25 272 8.0 12.9 0.00 0.00 0.00 16 1008.9
20260503220248 25 247 8.0 12.9 0.00 0.00 0.00 16 1008.9
20260503215744 25 290 4.8 16.1 0.00 0.00 0.00 17 1009.0
20260503215242 26 264 4.8 9.7 0.00 0.00 0.00 15 1009.1
20260503214740 25 8 4.8 12.9 0.00 0.00 0.00 16 1009.2
20260503214236 26 278 11.3 24.1 0.00 0.00 0.00 17 1009.1
20260503213735 25 231 4.8 12.9 0.00 0.00 0.00 17 1009.0
20260503213231 25 221 8.0 22.5 0.00 0.00 0.00 17 1009.2
20260503212728 25 262 16.1 22.5 0.00 0.00 0.00 17 1009.3
20260503212226 25 256 9.7 14.5 0.00 0.00 0.00 18 1009.4
20260503211723 25 286 14.5 17.7 0.00 0.00 0.00 18 1009.4
20260503211219 25 231 6.4 14.5 0.00 0.00 0.00 18 1009.7
20260503210715 25 270 11.3 16.1 0.00 0.00 0.00 20 1009.7
20260503210213 25 290 12.9 22.5 0.00 0.00 0.00 20 1009.9
20260503205708 25 240 16.1 22.5 0.00 0.00 0.00 19 1010.0
20260503205204 25 235 12.9 17.7 0.00 0.00 0.00 20 1010.1
20260503204700 25 255 3.2 6.4 0.00 0.00 0.00 20 1010.1
20260503204158 25 217 9.7 17.7 0.00 0.00 0.00 20 1010.2
20260503203655 25 223 3.2 11.3 0.00 0.00 0.00 21 1010.3
20260503203153 25 238 8.0 22.5 0.00 0.00 0.00 20 1010.2
20260503202650 25 284 14.5 17.7 0.00 0.00 0.00 20 1010.4
20260503202148 25 201 1.6 12.9 0.00 0.00 0.00 21 1010.3
20260503201646 23 248 6.4 16.1 0.00 0.00 0.00 21 1010.6
20260503201143 24 246 9.7 17.7 0.00 0.00 0.00 21 1010.6
20260503200639 24 235 12.9 16.1 0.00 0.00 0.00 21 1010.7
20260503200135 24 263 9.7 20.9 0.00 0.00 0.00 21 1010.6
20260503195632 24 240 9.7 17.7 0.00 0.00 0.00 20 1010.9
20260503195129 24 244 8.0 20.9 0.00 0.00 0.00 22 1010.8
20260503194626 23 210 9.7 14.5 0.00 0.00 0.00 22 1010.7
20260503194122 23 286 11.3 22.5 0.00 0.00 0.00 22 1010.9
20260503193619 24 316 9.7 16.1 0.00 0.00 0.00 22 1011.2
20260503193114 23 245 6.4 17.7 0.00 0.00 0.00 23 1011.2
20260503192610 23 302 4.8 12.9 0.00 0.00 0.00 21 1011.3